Location: Home
(42.5358°N, 72.7383°W)
Time: 22:35:53
(UTC-05:00)

Altair - Pass Details

Date: 12 December 2021
Orbit: 1501 x 1683 km, 47.2° (Epoch: 26 January)

Event Time Altitude Azimuth Distance (km) Brightness Sun altitude
Rises 21:12:47 0° 290° (WNW) 4,664 10.6 -53.1°
Reaches altitude 10° 21:17:06 10° 272° (W) 3,662 9.9 -53.8°
Enters shadow 21:20:45 17° 249° (WSW) 3,154 9.3 -54.4°
